FNLUHKNW

Guest
Details From FNLU - Luanda 4 De Fevereiro
To HKNW - Nairobi Wilson
Flight Number -
Tags Generated
Created
Modified
Stats Distance 1,481 nm / 2,742 km
Max Altitude 0 ft / 0 m
Waypoints 4
Social Downloads 0
Likes 0
Share VATSIM

Download

Looking for another format? Having issues loading an existing format? Contact us
Advertisement - Login to hide

Notes

Generated

Route

FNLU MZ GG HKNW

ID Type Via Altitude Latitude Longitude Leg Dist Tot Dist Heading (true) Name
O FNLU APT - 0 ft / 0 m -8.85561˚ 13.22570˚ - 0 nm - LUANDA 4 DE FEVEREIRO
MZ NDB - 0 ft / 0 m -2.44219˚ 32.92394˚ 1238 nm 1238 nm 73° / 71° MWANZA NDB
GG NDB - 0 ft / 0 m -1.39038˚ 36.63786˚ 231 nm 1469 nm 74° / 74° NGONG NDB
O HKNW APT - 0 ft / 0 m -1.32485˚ 36.80633˚ 10 nm 1480 nm 69° / 69° NAIROBI WILSON

Altitude Profile

Advertisement - Login to hide

Weather


0- 5 10 15 20 25 30 35+ Temperature / ° C

Clouds and Precipitation
Forecast for 2018-05-23 06:00 UTC. Updated 3 hours ago

Ground ~20,000 ft ~40,000 ft Winds

FNLU

Details ICAO FNLU (LAD)
Name LUANDA 4 DE FEVEREIRO
Region Angola
Timezone Africa/Luanda (UTC+1.0)
Stats Elevation 243 ft / 74 m (AMSL)
Location -8.858377° 13.231178°
Runways 2
Magnetic Variation 3.408° W

METAR

FNLU 230800Z VRB02KT 8000 OVC020 24/21 Q1015 NOSIG

Decode

TAF

TAF FNLU 230500Z 2306/2412 17005KT 8000 BKN020 BECMG 2312/2314 26008KT 9999 FEW020 BECMG 2318/2320 19005KT CAVOK BECMG 2400/2402 VRB03KT TEMPO 2405/2410 8000 BKN020

Decode

Departure Runways

ID Width Length Bearing (true) Bearing (mag) Surface Threshold Offset Overrun Length
05 148 ft / 45 m 12,153 ft / 3,704 m 46.63° 50.04° Asphalt 0 ft / 0 m 0 ft / 0 m
07 197 ft / 60 m 8,176 ft / 2,492 m 67.40° 70.81° Asphalt 0 ft / 0 m 176 ft / 54 m
23 148 ft / 45 m 12,153 ft / 3,704 m 226.62° 230.03° Asphalt 500 ft / 152 m 0 ft / 0 m
25 197 ft / 60 m 8,176 ft / 2,492 m 247.40° 250.81° Asphalt 0 ft / 0 m 0 ft / 0 m

HKNW

Details ICAO HKNW (WIL)
Name NAIROBI WILSON
Region Kenya
Timezone Africa/Nairobi (UTC+3.0)
Stats Elevation 5,546 ft / 1,690 m (AMSL)
Location -1.323145° 36.814695°
Runways 2
Magnetic Variation 0.611° E

METAR

HKNW 230700Z 17008KT 9999 BKN019 BKN080 17/15 Q1025

Decode

TAF

Not found

Destination Runways

ID Width Length Bearing (true) Bearing (mag) Surface Threshold Offset Overrun Length
07 72 ft / 22 m 4,799 ft / 1,463 m 69.77° 69.16° Asphalt 0 ft / 0 m 0 ft / 0 m
14 76 ft / 23 m 5,065 ft / 1,544 m 134.15° 133.54° Asphalt 0 ft / 0 m 0 ft / 0 m
25 72 ft / 22 m 4,799 ft / 1,463 m 249.77° 249.16° Asphalt 0 ft / 0 m 0 ft / 0 m
32 76 ft / 23 m 5,065 ft / 1,544 m 314.15° 313.54° Asphalt 0 ft / 0 m 0 ft / 0 m